Danville, IN

2:58 PM EST on November 20, 2017 (GMT -0500)
Vermilion County

Weather History for KDNV - April, 2013

Change the Weather History Date:

Sunday, April 21, 2013

  Actual Average (KLAF) Record (KLAF)
Temperature  
Mean Temperature 44 °F -  
Max Temperature 55 °F 63 °F 87 °F (1987)
Min Temperature 34 °F 43 °F 26 °F (1982)
Degree Days  
Heating Degree Days 21    
Moisture  
Dew Point 30 °F    
Average Humidity 58    
Maximum Humidity 76    
Minimum Humidity 42    
Precipitation  
Precipitation 0.00 in - - ()
Sea Level Pressure  
Sea Level Pressure 30.40 in    
Wind  
Wind Speed 8 mph (ESE)    
Max Wind Speed 16 mph    
Max Gust Speed 21 mph    
Visibility 10 miles    
Events      
Averages and records for this station are not official NWS values.
T = Trace of Precipitation, MM = Missing Value Source: NWS Daily Summary

Daily Weather History Graph

Daily Weather History Graph

Search for Another Location

Airport or City:

Trip Planner

Search our weather history database for the weather conditions in past years. The results will help you decide how hot, cold, wet, or windy it might be!

Date:

Astronomy

Apr. 21, 2013 Rise Set
Actual Time 6:03 AM CDT 7:35 PM CDT
Civil Twilight 5:34 AM CDT 8:04 PM CDT
Nautical Twilight 5:00 AM CDT 8:38 PM CDT
Astronomical Twilight 4:23 AM CDT 9:15 PM CDT
Moon 3:20 PM CDT (4/21) 3:25 AM CDT (4/21)
Length of Visible Light 14h 29m
Length of Day
13h 32m
Waxing Gibbous, 80% of the Moon is Illuminated
Apr 21
Waxing Gibbous
Apr 25
Full
May 2
Last Quarter
May 9
New
May 17
First Quarter

Hourly Weather History & Observations

Time (CDT) Temp. Windchill Dew Point Humidity Pressure Visibility Wind Dir Wind Speed Gust Speed Precip Events Conditions
12:15 AM 36.5 °F 32.7 °F 29.1 °F 75% 30.39 in 10.0 mi East 4.6 mph - N/A   Clear
12:35 AM 36.5 °F 33.9 °F 28.9 °F 74% 30.39 in 10.0 mi East 3.5 mph - N/A   Clear
12:55 AM 36.5 °F 33.9 °F 28.6 °F 73% 30.39 in 10.0 mi East 3.5 mph - N/A   Clear
1:15 AM 35.8 °F 31.9 °F 28.8 °F 76% 30.39 in 10.0 mi East 4.6 mph - N/A   Clear
1:35 AM 36.1 °F 31.4 °F 28.4 °F 73% 30.40 in 10.0 mi ENE 5.8 mph - N/A   Clear
4:15 AM 34.9 °F 29.9 °F 27.5 °F 74% 30.43 in 10.0 mi East 5.8 mph - N/A   Clear
4:35 AM 34.9 °F 29.9 °F 27.5 °F 74% 30.43 in 10.0 mi East 5.8 mph - N/A   Clear
4:55 AM 34.7 °F 29.6 °F 27.5 °F 75% 30.44 in 10.0 mi East 5.8 mph - N/A   Clear
5:15 AM 34.5 °F 29.4 °F 27.3 °F 75% 30.45 in 10.0 mi East 5.8 mph - N/A   Clear
5:35 AM 34.3 °F 28.4 °F 27.1 °F 75% 30.45 in 10.0 mi East 6.9 mph - N/A   Clear
5:55 AM 34.2 °F 28.2 °F 26.8 °F 74% 30.45 in 10.0 mi East 6.9 mph - N/A   Clear
6:15 AM 34.2 °F 29.0 °F 26.4 °F 73% 30.46 in 10.0 mi East 5.8 mph - N/A   Clear
6:35 AM 34.7 °F 28.8 °F 26.2 °F 71% 30.47 in 10.0 mi East 6.9 mph - N/A   Clear
6:55 AM 35.1 °F 27.9 °F 25.9 °F 69% 30.47 in 10.0 mi ESE 9.2 mph - N/A   Clear
7:15 AM 35.6 °F 29.2 °F 25.5 °F 67% 30.48 in 10.0 mi ESE 8.1 mph - N/A   Clear
7:35 AM 36.5 °F 29.7 °F 25.7 °F 65% 30.48 in 10.0 mi East 9.2 mph - N/A   Clear
7:55 AM 37.2 °F 30.6 °F 25.3 °F 62% 30.48 in 10.0 mi ESE 9.2 mph - N/A   Clear
8:15 AM 37.9 °F 31.5 °F 25.9 °F 62% 30.48 in 10.0 mi East 9.2 mph - N/A   Clear
8:35 AM 39.4 °F 33.8 °F 27.1 °F 62% 30.48 in 10.0 mi ESE 8.1 mph - N/A   Clear
8:55 AM 40.6 °F 32.3 °F 26.4 °F 57% 30.48 in 10.0 mi SE 16.1 mph - N/A   Clear
9:15 AM 41.2 °F 33.0 °F 27.1 °F 57% 30.48 in 10.0 mi ESE 16.1 mph - N/A   Clear
9:35 AM 41.9 °F 34.0 °F 27.0 °F 55% 30.47 in 10.0 mi ESE 16.1 mph 20.7 mph N/A   Clear
9:55 AM 43.3 °F 36.5 °F 28.2 °F 55% 30.47 in 10.0 mi SE 13.8 mph - N/A   Clear
10:15 AM 44.8 °F 39.4 °F 29.3 °F 55% 30.48 in 10.0 mi ESE 10.4 mph 17.3 mph N/A   Clear
10:35 AM 45.3 °F 39.7 °F 29.1 °F 53% 30.48 in 10.0 mi ESE 11.5 mph - N/A   Clear
10:55 AM 46.4 °F 41.1 °F 29.5 °F 52% 30.47 in 10.0 mi SE 11.5 mph 19.6 mph N/A   Clear
11:15 AM 47.1 °F - 30.2 °F 52% 30.47 in 10.0 mi SE 15.0 mph 18.4 mph N/A   Clear
11:35 AM 47.3 °F - 30.2 °F 52% 30.46 in 10.0 mi ESE 11.5 mph 16.1 mph N/A   Clear
11:55 AM 47.7 °F - 30.6 °F 52% 30.46 in 10.0 mi ESE 10.4 mph - N/A   Clear
12:15 PM 48.4 °F - 30.4 °F 50% 30.45 in 10.0 mi SE 10.4 mph - N/A   Clear
12:35 PM 48.7 °F - 30.9 °F 50% 30.44 in 10.0 mi ESE 8.1 mph - N/A   Clear
12:55 PM 49.6 °F - 31.5 °F 50% 30.43 in 10.0 mi ESE 8.1 mph - N/A   Clear
1:15 PM 50.0 °F - 31.1 °F 48% 30.42 in 10.0 mi ESE 10.4 mph - N/A   Clear
1:35 PM 50.7 °F - 31.1 °F 47% 30.41 in 10.0 mi East 9.2 mph - N/A   Clear
1:55 PM 51.4 °F - 31.3 °F 46% 30.40 in 10.0 mi SE 8.1 mph 17.3 mph N/A   Clear
2:15 PM 52.0 °F - 32.4 °F 47% 30.40 in 10.0 mi East 9.2 mph - N/A   Clear
2:35 PM 52.5 °F - 32.2 °F 46% 30.38 in 10.0 mi ESE 13.8 mph 17.3 mph N/A   Clear
3:15 PM 53.1 °F - 33.8 °F 48% 30.36 in 10.0 mi SE 9.2 mph - N/A   Clear
3:35 PM 53.2 °F - 32.7 °F 46% 30.35 in 10.0 mi ESE 12.7 mph - N/A   Clear
3:55 PM 53.8 °F - 32.2 °F 44% 30.35 in 10.0 mi SE 9.2 mph - N/A   Clear
4:15 PM 53.8 °F - 32.2 °F 44% 30.34 in 10.0 mi East 10.4 mph 17.3 mph N/A   Clear
4:35 PM 54.1 °F - 32.0 °F 43% 30.34 in 10.0 mi ESE 11.5 mph - N/A   Clear
4:55 PM 54.3 °F - 32.0 °F 43% 30.33 in 10.0 mi ESE 10.4 mph - N/A   Clear
5:15 PM 54.9 °F - 32.0 °F 42% 30.34 in 10.0 mi SE 10.4 mph - N/A   Clear
5:35 PM 54.7 °F - 32.4 °F 43% 30.33 in 10.0 mi ESE 8.1 mph - N/A   Clear
5:55 PM 54.7 °F - 32.0 °F 42% 30.33 in 10.0 mi East 10.4 mph 16.1 mph N/A   Clear
6:15 PM 54.5 °F - 33.4 °F 45% 30.33 in 10.0 mi ESE 9.2 mph - N/A   Clear
6:35 PM 54.0 °F - 31.8 °F 43% 30.33 in 10.0 mi ESE 10.4 mph - N/A   Clear
6:55 PM 53.4 °F - 31.8 °F 44% 30.33 in 10.0 mi East 8.1 mph - N/A   Clear
7:15 PM 52.0 °F - 32.9 °F 48% 30.33 in 10.0 mi ESE 6.9 mph - N/A   Clear
7:35 PM 50.9 °F - 33.8 °F 52% 30.33 in 10.0 mi East 4.6 mph - N/A   Clear
7:55 PM 49.8 °F - 34.5 °F 56% 30.34 in 10.0 mi East 5.8 mph - N/A   Clear
8:15 PM 49.1 °F - 34.3 °F 57% 30.34 in 10.0 mi East 4.6 mph - N/A   Clear
8:35 PM 48.4 °F - 34.3 °F 58% 30.33 in 10.0 mi East 6.9 mph - N/A   Clear
8:55 PM 48.2 °F - 34.3 °F 59% 30.33 in 10.0 mi East 4.6 mph - N/A   Clear
9:15 PM 47.3 °F - 34.5 °F 61% 30.34 in 10.0 mi East 5.8 mph - N/A   Clear
9:35 PM 46.9 °F - 34.3 °F 62% 30.34 in 10.0 mi East 4.6 mph - N/A   Clear
9:55 PM 46.8 °F - 33.8 °F 61% 30.33 in 10.0 mi East 6.9 mph - N/A   Clear
10:15 PM 46.4 °F 43.5 °F 33.8 °F 62% 30.33 in 10.0 mi East 5.8 mph - N/A   Clear
10:35 PM 45.9 °F 42.9 °F 33.6 °F 62% 30.33 in 10.0 mi East 5.8 mph - N/A   Clear
10:55 PM 45.7 °F 42.7 °F 33.8 °F 63% 30.33 in 10.0 mi ESE 5.8 mph - N/A   Clear
11:15 PM 44.8 °F 42.4 °F 33.8 °F 65% 30.32 in 10.0 mi ESE 4.6 mph - N/A   Clear
11:35 PM 44.6 °F 42.2 °F 33.4 °F 65% 30.32 in 10.0 mi East 4.6 mph - N/A   Clear
11:55 PM 44.1 °F 40.8 °F 33.3 °F 66% 30.31 in 10.0 mi East 5.8 mph - N/A   Clear